Nashua, NH

3:21 PM EDT on October 16, 2019 (GMT -0400)
Boire

Weather History for KASH - May, 2019

Change the Weather History Date:

Saturday, May 11, 2019

  Actual Average Record
Temperature  
Mean Temperature 59 °F -  
Max Temperature 66 °F 67 °F 90 °F (1993)
Min Temperature 51 °F 40 °F 23 °F (1966)
Degree Days  
Heating Degree Days 6    
Growing Degree Days 9 (Base 50)    
Moisture  
Dew Point 42 °F    
Average Humidity 61    
Maximum Humidity 100    
Minimum Humidity 26    
Precipitation  
Precipitation 0.00 in - - ()
Sea Level Pressure  
Sea Level Pressure 29.99 in    
Wind  
Wind Speed 7 mph (NW)    
Max Wind Speed 20 mph    
Max Gust Speed 25 mph    
Visibility 8 miles    
Events Fog    
Averages and records for this station are not official NWS values.
T = Trace of Precipitation, MM = Missing Value Source: NWS Daily Summary

Daily Weather History Graph

Daily Weather History Graph

Search for Another Location

Airport or City:

Astronomy

May. 11, 2019 Rise Set
Actual Time 5:28 AM EDT 7:57 PM EDT
Civil Twilight 4:56 AM EDT 8:29 PM EDT
Nautical Twilight 4:16 AM EDT 9:09 PM EDT
Astronomical Twilight 3:31 AM EDT 9:54 PM EDT
Moon 11:33 AM EDT (5/11) 1:36 AM EDT (5/11)
Length of Visible Light 15h 33m
Length of Day
14h 29m
Waxing Crescent, 46% of the Moon is Illuminated
May 11
Waxing Crescent
May 11
First Quarter
May 18
Full
May 26
Last Quarter
Jun 3
New

Hourly Weather History & Observations

Time (EDT) Temp. Dew Point Humidity Pressure Visibility Wind Dir Wind Speed Gust Speed Precip Events Conditions
12:32 AM 55.4 °F 55.4 °F 100% 29.89 in 1.8 mi Calm Calm - N/A   Overcast
12:50 AM 55.4 °F 55.4 °F 100% 29.89 in 1.0 mi Calm Calm - N/A   Scattered Clouds
12:56 AM 55.9 °F 55.9 °F 100% 29.92 in 0.8 mi WNW 3.5 mph - N/A   Scattered Clouds
1:05 AM 55.4 °F 55.4 °F 100% 29.89 in 0.5 mi Calm Calm - N/A Fog Fog
1:11 AM 55.4 °F 55.4 °F 100% 29.88 in 2.0 mi NW 6.9 mph - N/A   Mostly Cloudy
1:18 AM 55.4 °F 55.4 °F 100% 29.88 in 7.0 mi WNW 6.9 mph - N/A   Mostly Cloudy
1:56 AM 57.0 °F 55.9 °F 96% 29.93 in 10.0 mi West 4.6 mph - N/A   Scattered Clouds
2:56 AM 57.0 °F 52.0 °F 83% 29.94 in 10.0 mi WNW 9.2 mph - N/A   Scattered Clouds
3:56 AM 55.0 °F 48.9 °F 80% 29.94 in 10.0 mi West 6.9 mph - N/A   Mostly Cloudy
4:56 AM 55.0 °F 46.0 °F 72% 29.95 in 10.0 mi West 9.2 mph - N/A   Overcast
5:56 AM 53.1 °F 45.0 °F 74% 29.97 in 10.0 mi WNW 10.4 mph - N/A   Partly Cloudy
7:56 AM 55.9 °F 42.1 °F 60% 30.00 in 10.0 mi WNW 18.4 mph 25.3 mph N/A   Partly Cloudy
8:56 AM 55.9 °F 42.1 °F 60% 30.01 in 10.0 mi NW 19.6 mph 23.0 mph N/A   Overcast
9:56 AM 55.9 °F 42.1 °F 60% 30.02 in 10.0 mi NW 16.1 mph 24.2 mph N/A   Overcast
10:56 AM 57.9 °F 41.0 °F 53% 30.02 in 10.0 mi WNW 11.5 mph 19.6 mph N/A   Mostly Cloudy
11:56 AM 60.1 °F 39.9 °F 47% 30.01 in 10.0 mi WNW 10.4 mph 20.7 mph N/A   Scattered Clouds
12:56 PM 62.1 °F 36.0 °F 38% 30.01 in 10.0 mi NNW 13.8 mph 21.9 mph N/A   Clear
1:56 PM 64.0 °F 34.0 °F 33% 30.00 in 10.0 mi NW 18.4 mph 23.0 mph N/A   Scattered Clouds
2:56 PM 64.9 °F 33.1 °F 31% 30.01 in 10.0 mi North 10.4 mph 18.4 mph N/A   Clear
3:56 PM 66.0 °F 30.0 °F 26% 29.99 in 10.0 mi NW 16.1 mph 24.2 mph N/A   Clear
4:56 PM 66.0 °F 30.0 °F 26% 29.99 in 10.0 mi North 13.8 mph 19.6 mph N/A   Clear
5:56 PM 64.9 °F 32.0 °F 29% 30.00 in 10.0 mi NNW 11.5 mph 18.4 mph N/A   Clear
6:56 PM 62.1 °F 30.9 °F 31% 30.03 in 10.0 mi NNW 11.5 mph 18.4 mph N/A   Clear
7:56 PM 59.0 °F 32.0 °F 36% 30.05 in 10.0 mi NNW 8.1 mph - N/A   Clear
8:56 PM 55.9 °F 32.0 °F 40% 30.08 in 10.0 mi North 6.9 mph - N/A   Clear
9:56 PM 54.0 °F 32.0 °F 43% 30.09 in 10.0 mi North 6.9 mph - N/A   Clear
10:56 PM 52.0 °F 30.9 °F 45% 30.10 in 10.0 mi NNW 10.4 mph - N/A   Clear
11:56 PM 51.1 °F 30.9 °F 46% 30.12 in 10.0 mi Variable 5.8 mph - N/A   Clear